Location: Barnston
(51.8500°N, 0.4000°E)
Time: 11:44:23
(UTC+00:00)

NOSS 3-4 (A) - Pass Details

Date: 26 September 2023
Orbit: 813 x 1400 km, 63.4° (Epoch: 23 November)

Event Time Altitude Azimuth Distance (km) Brightness Sun altitude
Exits shadow 02:10:53 65° 6° (N) 991 3.6 -31.3°
Drops below altitude 10° 02:16:29 10° 45° (NE) 2,743 6.8 -30.7°
Sets 02:19:16 0° 47° (NE) 3,783 7.8 -30.4°
